This is the latest recevied weather packets stored in our database for station/object DB0OHL. If no packets are shown the sender has not sent any weather packets the latest 10 day(s).
| Time | Temp. | Humidity | Pressure | Rain* | Wind** | Luminosity | Snow |
|---|---|---|---|---|---|---|---|
| 1777659926 | 20.56° C | 39% | 1021.2 hPa | 0 mm | - | - | - |
| 1777659323 | 21.11° C | 39% | 1021.2 hPa | 0 mm | - | - | - |
| 1777658721 | 21.67° C | 39% | 1021.2 hPa | 0 mm | - | - | - |
| 1777658118 | 21.67° C | 37% | 1021.2 hPa | 0 mm | - | - | - |
| 1777657515 | 22.22° C | 37% | 1021.2 hPa | 0 mm | - | - | - |
| 1777656973 | 22.22° C | 36% | 1021 hPa | 0 mm | - | - | - |
| 1777656371 | 22.22° C | 37% | 1021.1 hPa | 0 mm | - | - | - |
| 1777655768 | 22.78° C | 36% | 1021.1 hPa | 0 mm | - | - | - |
| 1777655166 | 22.78° C | 36% | 1021.2 hPa | 0 mm | - | - | - |
| 1777654563 | 22.78° C | 37% | 1021.2 hPa | 0 mm | - | - | - |
| 1777653960 | 22.78° C | 35% | 1021.2 hPa | 0 mm | - | - | - |
| 1777653358 | 22.78° C | 36% | 1021.1 hPa | 0 mm | - | - | - |
| 1777652755 | 23.33° C | 35% | 1021.3 hPa | 0 mm | - | - | - |
| 1777652153 | 23.33° C | 36% | 1021.4 hPa | 0 mm | - | - | - |
| 1777651550 | 22.78° C | 36% | 1021.4 hPa | 0 mm | - | - | - |
| 1777650948 | 22.78° C | 37% | 1021.5 hPa | 0 mm | - | - | - |
| 1777650345 | 23.33° C | 36% | 1021.6 hPa | 0 mm | - | - | - |
| 1777649751 | 23.33° C | 36% | 1021.7 hPa | 0 mm | - | - | - |
| 1777649140 | 23.33° C | 36% | 1021.9 hPa | 0 mm | - | - | - |
| 1777648538 | 23.33° C | 35% | 1022 hPa | 0 mm | - | - | - |
| 1777647935 | 23.33° C | 35% | 1022.1 hPa | 0 mm | - | - | - |
| 1777647332 | 22.78° C | 36% | 1022.2 hPa | 0 mm | - | - | - |
| 1777646730 | 23.89° C | 36% | 1022.3 hPa | 0 mm | - | - | - |
| 1777646127 | 23.33° C | 36% | 1022.3 hPa | 0 mm | - | - | - |
| 1777645525 | 22.78° C | 36% | 1022.4 hPa | 0 mm | - | - | - |
* Rain latest hour (hover to see other rain measurements)
** Current wind speed in m/s (hover to see current wind gust speed)